CW9197 Juva FI current weather conditions

sailwx.info

Wind from 177

Air temperature 10.0° C

Last reported at 2015-Sep-03 22:50 UTC.
Time now 2015-Sep-03 23:28 UTC

Location: N 61°53' E 027°53'.
View on Google Maps.

See reports from other nearby stations

  
Tides and Currents Weather Stations Pressure Air Temp Water Temp Dewpoint Dewpoint Depression Visibility Wind Speed Wind Dir Waves Ship Positions
date/time (UTC)wind fromknots sea level pressurealtimeterstation pressurevisibilityair tempwater tempwave heightnotes
2015-Sep-03 22:50 177 10.0
2015-Sep-03 22:40 163 10.0
2015-Sep-03 22:30 161 10.0
2015-Sep-03 22:20 156 10.0
2015-Sep-03 22:10 163 10.0
2015-Sep-03 22:00 162 10.0
2015-Sep-03 21:50 167 10.0
2015-Sep-03 21:40 170 10.0
2015-Sep-03 21:30 130 10.0
2015-Sep-03 21:20 168 10.0
2015-Sep-03 21:10 164 10.0
2015-Sep-03 21:00 179 10.0
2015-Sep-03 20:50 149 10.6
2015-Sep-03 20:40 087 10.6
2015-Sep-03 20:30 084 10.0
2015-Sep-03 20:20 106 10.0
2015-Sep-03 19:50 074 0 gusting 2 10.0
2015-Sep-03 19:40 092 10.0
2015-Sep-03 19:30 063 0 gusting 1 10.0
2015-Sep-03 19:20 060 0 gusting 2 10.0
2015-Sep-03 19:10 059 0 gusting 1 10.0
2015-Sep-03 18:50 060 0 gusting 1 10.0
2015-Sep-03 18:40 057 0 gusting 1 10.0
2015-Sep-03 18:30 065 0 gusting 3 10.0
2015-Sep-03 18:20 064 0 gusting 2 10.0
2015-Sep-03 18:10 071 0 gusting 2 10.0
2015-Sep-03 18:00 063 0 gusting 2 10.6
2015-Sep-03 17:50 056 10.0
2015-Sep-03 17:40 047 10.6
2015-Sep-03 17:30 044 0 gusting 1 10.6
2015-Sep-03 17:00 051 11.1
2015-Sep-03 16:50 049 11.1
2015-Sep-03 16:30 062 11.7
2015-Sep-03 16:10 12.2
2015-Sep-03 15:50 12.8
2015-Sep-03 15:40 106 12.8
2015-Sep-03 15:20 083 0 gusting 2 13.3
2015-Sep-03 15:10 115 0 gusting 3 13.3
2015-Sep-03 14:50 172 13.3
2015-Sep-03 14:40 074 0 gusting 2 13.3
2015-Sep-03 14:30 079 13.3
2015-Sep-03 14:20 073 13.3
2015-Sep-03 14:10 115 13.9
2015-Sep-03 14:00 104 13.9
2015-Sep-03 13:40 122 0 gusting 2 13.9
2015-Sep-03 13:30 079 0 gusting 2 13.9
2015-Sep-03 13:10 209 0 gusting 2 14.4
2015-Sep-03 13:00 087 1 gusting 5 14.4
2015-Sep-03 12:00 074 2 gusting 5 13.3
2015-Sep-03 11:50 062 1 gusting 4 13.3
2015-Sep-03 11:40 068 2 gusting 6 13.3
2015-Sep-03 11:00 071 2 gusting 6 12.8
2015-Sep-03 10:40 103 1 gusting 5 12.8
2015-Sep-03 10:20 072 1 gusting 4 12.8
2015-Sep-03 10:10 093 1 gusting 5 12.8
2015-Sep-03 10:00 067 2 gusting 5 12.2
2015-Sep-03 09:30 090 1 gusting 5 12.8
2015-Sep-03 09:20 068 1 gusting 5 12.8
2015-Sep-03 09:10 084 3 gusting 6 12.2
2015-Sep-03 09:00 077 3 gusting 6 12.2
2015-Sep-03 08:50 083 2 gusting 8 12.2
2015-Sep-03 08:30 085 2 gusting 8 12.2
2015-Sep-03 08:20 077 2 gusting 6 12.2
2015-Sep-03 08:10 081 2 gusting 6 12.2
2015-Sep-03 08:00 073 1 gusting 6 11.7
2015-Sep-03 07:50 079 2 gusting 9 11.7
2015-Sep-03 07:40 062 3 gusting 6 11.7
2015-Sep-03 07:20 097 1 gusting 5 11.7
2015-Sep-03 07:10 076 3 gusting 6 11.1
2015-Sep-03 07:00 087 2 gusting 6 11.1
2015-Sep-03 06:40 064 2 gusting 6 11.1
2015-Sep-03 06:30 073 2 gusting 6 11.1
2015-Sep-03 06:20 068 2 gusting 5 11.1
2015-Sep-03 06:00 076 2 gusting 5 11.1
2015-Sep-03 05:50 054 2 gusting 5 11.1
2015-Sep-03 05:30 068 2 gusting 6 11.7
2015-Sep-03 05:20 069 2 gusting 6 11.1
2015-Sep-03 05:10 065 2 gusting 6 10.6
2015-Sep-03 05:00 065 2 gusting 3 8.9
2015-Sep-03 04:50 055 2 gusting 5 8.9
2015-Sep-03 04:40 060 1 gusting 4 8.9
2015-Sep-03 04:30 061 1 gusting 3 8.3
2015-Sep-03 04:20 062 3 gusting 6 8.3
2015-Sep-03 04:00 056 2 gusting 6 8.3
2015-Sep-03 03:50 061 2 gusting 5 8.3
2015-Sep-03 03:30 055 2 gusting 5 8.3
2015-Sep-03 03:20 059 1 gusting 4 8.3
2015-Sep-03 03:10 065 2 gusting 4 8.3
2015-Sep-03 03:00 054 0 gusting 3 7.8
2015-Sep-03 02:20 048 0 gusting 2 7.8
2015-Sep-03 02:10 039 0 gusting 1 7.8
2015-Sep-03 01:50 041 1 gusting 4 8.3
2015-Sep-03 01:40 062 1 gusting 3 8.3
2015-Sep-03 01:30 054 0 gusting 3 8.3
2015-Sep-03 01:10 030 0 gusting 1 8.3
2015-Sep-03 01:00 058 2 gusting 5 8.9
2015-Sep-03 00:50 060 2 gusting 6 8.9
2015-Sep-03 00:40 062 1 gusting 2 8.9
2015-Sep-03 00:30 069 1 gusting 6 9.4
2015-Sep-03 00:20 060 2 gusting 7 8.9
2015-Sep-03 00:00 064 1 gusting 3 9.4
2015-Sep-02 23:50 065 1 gusting 5 9.4
2015-Sep-02 23:40 075 1 gusting 4 9.4
2015-Sep-02 23:30 077 2 gusting 5 9.4
2015-Sep-02 23:10 059 2 gusting 5 9.4
2015-Sep-02 22:50 059 3 gusting 6 9.4
2015-Sep-02 22:40 053 4 gusting 7 9.4
2015-Sep-02 22:30 057 3 gusting 10 9.4
2015-Sep-02 22:20 061 2 gusting 5 9.4
2015-Sep-02 22:10 060 2 gusting 5 9.4
2015-Sep-02 22:00 053 2 gusting 5 8.9
2015-Sep-02 21:20 039 0 gusting 2 8.3
2015-Sep-02 21:10 038 0 gusting 3 8.3
2015-Sep-02 20:50 040 0 gusting 2 8.3
2015-Sep-02 20:40 058 0 gusting 1 8.3
2015-Sep-02 20:30 046 8.3
2015-Sep-02 20:20 047 8.3
2015-Sep-02 20:00 052 0 gusting 1 7.8
2015-Sep-02 19:50 053 0 gusting 1 7.8
2015-Sep-02 19:10 052 7.8
2015-Sep-02 19:00 048 8.3
2015-Sep-02 18:50 066 8.3
2015-Sep-02 18:40 061 0 gusting 0 8.3
2015-Sep-02 18:20 061 0 gusting 1 8.3
2015-Sep-02 17:40 046 0 gusting 4 9.4
2015-Sep-02 17:30 045 0 gusting 4 9.4
2015-Sep-02 17:00 049 0 gusting 3 10.0
2015-Sep-02 16:50 032 0 gusting 2 10.0
2015-Sep-02 16:40 026 0 gusting 6 10.6
2015-Sep-02 16:20 037 0 gusting 3 10.6
2015-Sep-02 16:00 050 0 gusting 5 11.1
2015-Sep-02 15:50 032 1 gusting 6 11.1
2015-Sep-02 15:40 040 0 gusting 3 11.7
2015-Sep-02 15:30 031 1 gusting 5 11.7
2015-Sep-02 15:10 027 0 gusting 4 11.7
2015-Sep-02 15:00 033 0 gusting 2 11.7
2015-Sep-02 14:40 032 1 gusting 5 12.2
2015-Sep-02 14:30 037 2 gusting 6 12.2
2015-Sep-02 14:20 035 1 gusting 6 12.2
2015-Sep-02 14:00 014 1 gusting 6 12.2
2015-Sep-02 13:40 044 2 gusting 7 12.2
2015-Sep-02 13:20 028 2 gusting 6 12.2
2015-Sep-02 13:10 048 2 gusting 6 12.2
2015-Sep-02 12:50 041 3 gusting 7 12.8
2015-Sep-02 12:20 060 4 gusting 9 12.8
2015-Sep-02 12:10 046 2 gusting 6 12.8
2015-Sep-02 12:00 050 2 gusting 7 12.8
2015-Sep-02 11:50 045 2 gusting 9 12.2
2015-Sep-02 11:40 030 1 gusting 4 12.8
2015-Sep-02 11:30 045 2 gusting 6 12.8
2015-Sep-02 11:10 046 2 gusting 9 12.2
2015-Sep-02 10:00 030 3 gusting 6 13.3
2015-Sep-02 09:50 057 3 gusting 8 13.3
2015-Sep-02 09:40 061 4 gusting 10 12.8
2015-Sep-02 09:20 034 2 gusting 8 12.8
2015-Sep-02 09:10 053 2 gusting 8 12.8
2015-Sep-02 08:40 049 3 gusting 8 12.2
2015-Sep-02 08:30 053 3 gusting 8 12.2
2015-Sep-02 08:10 058 3 gusting 8 12.2
2015-Sep-02 08:00 059 2 gusting 6 12.2
2015-Sep-02 07:30 047 1 gusting 8 13.9
2015-Sep-02 07:10 046 2 gusting 7 12.2
2015-Sep-02 07:00 037 2 gusting 8 12.2
2015-Sep-02 06:50 030 3 gusting 7 11.7
2015-Sep-02 06:20 038 3 gusting 6 12.2
2015-Sep-02 06:10 017 1 gusting 6 12.8
2015-Sep-02 06:00 027 1 gusting 4 12.2
2015-Sep-02 05:50 035 2 gusting 6 12.2
2015-Sep-02 05:40 033 0 gusting 3 11.7
2015-Sep-02 05:30 020 1 gusting 5 11.1
2015-Sep-02 05:20 030 1 gusting 5 11.7
2015-Sep-02 05:10 033 1 gusting 3 11.1
2015-Sep-02 05:00 027 0 gusting 3 10.6
2015-Sep-02 04:30 041 0 gusting 2 8.9
2015-Sep-02 04:20 037 0 gusting 3 7.8
2015-Sep-02 04:00 035 7.8
2015-Sep-02 03:50 044 7.2
2015-Sep-02 03:40 031 0 gusting 1 7.2
2015-Sep-02 03:30 025 0 gusting 1 7.2
2015-Sep-02 03:20 037 7.2
2015-Sep-02 03:00 044 7.2
2015-Sep-02 02:50 047 0 gusting 1 7.2
2015-Sep-02 02:20 043 7.8
2015-Sep-02 02:10 038 0 gusting 2 7.8
2015-Sep-02 01:50 022 0 gusting 3 7.8
2015-Sep-02 01:40 036 0 gusting 2 7.8
2015-Sep-02 01:30 045 0 gusting 3 8.3
2015-Sep-02 01:20 026 0 gusting 3 7.8
2015-Sep-02 01:10 035 0 gusting 1 7.8
2015-Sep-02 00:50 050 7.8
2015-Sep-02 00:40 052 8.3
2015-Sep-02 00:20 027 0 gusting 2 8.3
2015-Sep-02 00:10 035 0 gusting 2 8.3
2015-Sep-02 00:00 030 8.3
2015-Sep-01 23:50 039 0 gusting 2 8.3
2015-Sep-01 23:40 034 8.3
2015-Sep-01 23:30 028 8.3
2015-Sep-01 23:10 023 0 gusting 3 8.9
2015-Sep-01 23:00 028 0 gusting 2 8.9